STARLINK-1342, 45558

Orbit data source: Space-Track

STARLINK-1342, 45558 is a payload satellite owned by SpaceX/Seattle (US) in LEO that was launched on Wed, 22 Apr 2020 UTC via an FALCON 9 launch vehicle from the Air Force Eastern Test Range (AFETR). Payload-class satellites include a variety of spacecraft equipped with specific instruments for various scientific and technological missions. These include communications satellites like Starlink; space stations such as the ISS; scientific satellites like the Hubble; Earth observation satellites from companies like Planet Labs, Umbra, and HawkEye 360; GPS; miniature CubeSats for education and research; and military/defense satellites.

Loading next visibility...
Identifier
45558, 2020-025AD
Orbit
LEO
Last TLE update
12 hours ago
Origin
Manufacturer
SpaceX/Seattle
Mission
Partially operational Commercial Communications
Bus & Motor
STARLINK, Unknown motor
Mass
260 kg wet, ~248 kg dry
Launch date (UTC)
2020-04-22 (5 years ago)
Launch vehicle
FALCON 9
Launch site
Air Force Eastern Test Range (AFETR)
Object type
Payload
Rocket body
Debris
Shape & HBR
Box + 1 Pan, 8.86 m
Radar Cross Section
13.562 m², Large (>1 m²)

Expand to show TLE details & history

TLE from 12 hours ago
0 STARLINK-1342
1 45558U 20025AD  25181.89272124  .00119729  00000-0  12902-2 0  9993
2 45558  53.0548 130.5664 0001600 128.8516 231.2640 15.62833371286897
Epoch: 2025-06-30T21:25Z
TLE epoch observation values (Epoch: 2025-06-30T21:25:31.115Z)
Latitude
-0.00004°
Longitude
-110.00928°
Altitude
381.055 km
Speed
7.682 km/s
True Right ascension
08h 42m 15s
True Declination
0° 00' 00"
Sunlit
Object was in daylight at epoch
Visualization orbit readout
Latitude
-23.77796°
Longitude
-131.72457°
Altitude
386.975 km
Speed
7.677 km/s
Apparent Right ascension
08h 07m 05s
Apparent Declination
-32° 17' 00"
Sunlit
Object is in daylight
Visualization observer readout
Local Sidereal Time
21:12:46
Azimuth
65.152° ENE
Elevation
-74.727°
Doppler factor
1
Orbital elements
Apogee altitude
380.836 km
Perigee altitude
378.673 km
Semi-major axis
6,757.891 km
Eccentricity
0.00016
Inclination
53.0548°
RAAN
130.5664°
Arg. of periapsis
128.8516°
True anomaly
Unknown
Mean anomaly
231.264°
Eccentric anomaly
Unknown
Mean motion
3.90685 °/min
Orbital period
92.15 mins
BSTAR
0.0012902
Loading maneuver chart data...
Loading SW <> Apogee altitude chart data...
Loading historical data...
Loading historical data...
Loading historical data...
Loading historical data...
Loading historical data...
Loading historical data...
Loading historical data...

STARLINK-1342 Visibility forecast

Observer location: undefined°, undefined°

Span
Click to sort rows by Start time (UTC) header in descending order
Start Az.
Max El. time (UTC)
Max El. Az.
Max El.
End time (UTC)
End Az.
4 mins2025-07-01 23:44:28.386Z272.137° WNW2025-07-01 23:45:28.386Z313.981° NW33.785°2025-07-01 23:48:28.386Z37.849° NE
4 mins2025-07-02 06:10:28.386Z296.253° NW2025-07-02 06:12:28.386Z176.35° S38.403°2025-07-02 06:14:28.386Z143.051° SSE
|